Weather History for KJKA - January, 2013

Change the Weather History Date:

Sunday, January 27, 2013

  Actual Average (KPNS) Record (KPNS)
Temperature  
Mean Temperature 60 °F 52 °F  
Max Temperature 69 °F 61 °F 79 °F (1954)
Min Temperature 50 °F 43 °F 14 °F (1940)
Degree Days  
Heating Degree Days 6 13  
Month to date heating degree days 376  
Since 1 July heating degree days 958  
Cooling Degree Days 0 0  
Month to date cooling degree days 0  
Year to date cooling degree days 0  
Growing Degree Days 10 (Base 50)    
Moisture  
Dew Point 55 °F    
Average Humidity 85    
Maximum Humidity 100    
Minimum Humidity 64    
Precipitation  
Precipitation 0.00 in 0.16 in 1.57 in (1985)
Month to date precipitation 3.97  
Year to date precipitation 3.97  
Snow  
Snow 0.00 in 0.00 in - ()
Month to date snowfall 0.0  
Since 1 July snowfall 0.0  
Snow Depth -    
Sea Level Pressure  
Sea Level Pressure 30.28 in    
Wind  
Wind Speed 4 mph (East)    
Max Wind Speed 14 mph    
Max Gust Speed 18 mph    
Visibility 6 miles    
Events Fog    
T = Trace of Precipitation, MM = Missing Value Source: NWS Daily Summary

Daily Weather History Graph

Daily Weather History Graph

Search for Another Location

Airport or City:

Trip Planner

Search our weather history database for the weather conditions in past years. The results will help you decide how hot, cold, wet, or windy it might be!

Date:

Astronomy

Jan. 27, 2013 Rise Set
Actual Time 6:43 AM CST 5:23 PM CST
Civil Twilight 6:18 AM CST 5:48 PM CST
Nautical Twilight 5:49 AM CST 6:17 PM CST
Astronomical Twilight 5:21 AM CST 6:46 PM CST
Moon 6:09 PM CST (1/27) 6:42 AM CST (1/27)
Length of Visible Light 11h 30m
Length of Day
10h 39m
Full, 100% of the Moon is Illuminated
Jan 27
Full
Feb 3
Last Quarter
Feb 10
New
Feb 17
First Quarter
Feb 25
Full

Hourly Weather History & Observations

Time (CST) Temp. Dew Point Humidity Pressure Visibility Wind Dir Wind Speed Gust Speed Precip Events Conditions
12:15 AM 50.0 °F 48.2 °F 94% 30.27 in 0.2 mi Calm Calm - N/A Fog Fog
12:35 AM 51.8 °F 50.0 °F 94% 30.27 in 0.2 mi Calm Calm - N/A Fog Fog
12:55 AM 50.0 °F 48.2 °F 94% 30.27 in 0.5 mi Calm Calm - N/A Fog Fog
1:15 AM 51.8 °F 50.0 °F 94% 30.27 in 5.0 mi NE 4.6 mph - N/A   Clear
1:35 AM 55.4 °F 53.6 °F 94% 30.27 in 5.0 mi NE 4.6 mph - N/A   Clear
1:55 AM 55.4 °F 53.6 °F 94% 30.27 in 5.0 mi ENE 3.5 mph - N/A   Clear
2:15 AM 55.4 °F 53.6 °F 94% 30.27 in 4.0 mi Calm Calm - N/A   Clear
2:35 AM 55.4 °F 53.6 °F 94% 30.27 in 2.0 mi Calm Calm - N/A   Clear
2:55 AM 55.4 °F 53.6 °F 94% 30.27 in 3.0 mi Calm Calm - N/A   Clear
3:15 AM 53.6 °F 51.8 °F 94% 30.27 in 0.8 mi Calm Calm - N/A   Mist
3:35 AM 53.6 °F 51.8 °F 94% 30.27 in 4.0 mi Calm Calm - N/A   Clear
3:55 AM 53.6 °F 51.8 °F 94% 30.26 in 3.0 mi Calm Calm - N/A   Clear
4:15 AM 53.6 °F 51.8 °F 94% 30.26 in 4.0 mi ENE 3.5 mph - N/A   Clear
4:35 AM 53.6 °F 51.8 °F 94% 30.25 in 5.0 mi ENE 3.5 mph - N/A   Clear
4:55 AM 53.6 °F 51.8 °F 94% 30.26 in 2.0 mi Calm Calm - N/A   Clear
5:15 AM 51.8 °F 50.0 °F 94% 30.26 in 0.5 mi Calm Calm - N/A Fog Fog
5:35 AM 53.6 °F 51.8 °F 94% 30.27 in 0.8 mi NE 4.6 mph - N/A   Mostly Cloudy
6:15 AM 53.6 °F 51.8 °F 94% 30.28 in 3.0 mi Calm Calm - N/A   Clear
6:35 AM 51.8 °F 50.0 °F 94% 30.28 in 0.5 mi Calm Calm - N/A Fog Fog
6:55 AM 51.8 °F 51.8 °F 100% 30.28 in 0.5 mi Calm Calm - N/A Fog Fog
7:15 AM 51.8 °F 50.0 °F 94% 30.29 in 0.2 mi Calm Calm - N/A Fog Fog
7:35 AM 51.8 °F 50.0 °F 94% 30.29 in 0.5 mi Calm Calm - N/A Fog Fog
7:55 AM 55.4 °F 53.6 °F 94% 30.30 in 4.0 mi Calm Calm - N/A   Clear
8:15 AM 57.2 °F 53.6 °F 88% 30.31 in 5.0 mi Calm Calm - N/A   Mostly Cloudy
8:35 AM 57.2 °F 55.4 °F 94% 30.31 in 5.0 mi Calm Calm - N/A   Overcast
8:55 AM 59.0 °F 57.2 °F 94% 30.31 in 7.0 mi ENE 3.5 mph - N/A   Overcast
9:15 AM 60.8 °F 59.0 °F 94% 30.32 in 7.0 mi ENE 5.8 mph - N/A   Mostly Cloudy
9:35 AM 62.6 °F 59.0 °F 88% 30.32 in 10.0 mi ENE 8.1 mph - N/A   Mostly Cloudy
9:55 AM 62.6 °F 59.0 °F 88% 30.33 in 10.0 mi ENE 10.4 mph - N/A   Mostly Cloudy
10:15 AM 64.4 °F 57.2 °F 77% 30.33 in 10.0 mi ENE 9.2 mph - N/A   Scattered Clouds
10:35 AM 68.0 °F 57.2 °F 68% 30.32 in 10.0 mi East 10.4 mph - N/A   Scattered Clouds
10:55 AM 69.8 °F 57.2 °F 64% 30.32 in 10.0 mi East 11.5 mph - N/A   Scattered Clouds
11:15 AM 69.8 °F 59.0 °F 68% 30.31 in 10.0 mi ESE 13.8 mph 17.3 mph N/A   Clear
11:35 AM 69.8 °F 57.2 °F 64% 30.31 in 10.0 mi East 11.5 mph 16.1 mph N/A   Scattered Clouds
11:55 AM 69.8 °F 57.2 °F 64% 30.30 in 10.0 mi ESE 12.7 mph - N/A   Scattered Clouds
12:15 PM 69.8 °F 57.2 °F 64% 30.28 in 10.0 mi East 12.7 mph - N/A   Scattered Clouds
12:35 PM 69.8 °F 57.2 °F 64% 30.28 in 10.0 mi SE 11.5 mph 18.4 mph N/A   Scattered Clouds
12:55 PM 69.8 °F 57.2 °F 64% 30.27 in 10.0 mi ESE 10.4 mph - N/A   Scattered Clouds
1:15 PM 69.8 °F 57.2 °F 64% 30.26 in 10.0 mi ESE 10.4 mph 17.3 mph N/A   Clear
1:35 PM 69.8 °F 57.2 °F 64% 30.26 in 10.0 mi East 10.4 mph - N/A   Clear
1:55 PM 69.8 °F 57.2 °F 64% 30.26 in 10.0 mi ESE 10.4 mph 16.1 mph N/A   Scattered Clouds
2:15 PM 68.0 °F 57.2 °F 68% 30.26 in 10.0 mi ESE 10.4 mph - N/A   Overcast
2:35 PM 69.8 °F 57.2 °F 64% 30.26 in 10.0 mi East 10.4 mph - N/A   Overcast
2:55 PM 68.0 °F 57.2 °F 68% 30.26 in 10.0 mi ESE 10.4 mph - N/A   Overcast
3:15 PM 68.0 °F 59.0 °F 73% 30.27 in 10.0 mi East 9.2 mph - N/A   Overcast
3:35 PM 68.0 °F 59.0 °F 73% 30.27 in 10.0 mi ESE 8.1 mph - N/A   Overcast
3:55 PM 68.0 °F 59.0 °F 73% 30.27 in 10.0 mi East 9.2 mph - N/A   Overcast
4:15 PM 66.2 °F 59.0 °F 78% 30.27 in 7.0 mi East 10.4 mph - N/A   Overcast
4:35 PM 66.2 °F 59.0 °F 78% 30.27 in 7.0 mi East 6.9 mph - N/A   Mostly Cloudy
4:55 PM 64.4 °F 59.0 °F 83% 30.27 in 7.0 mi East 5.8 mph - N/A   Scattered Clouds
5:15 PM 62.6 °F 59.0 °F 88% 30.27 in 7.0 mi East 5.8 mph - N/A   Clear
5:35 PM 62.6 °F 57.2 °F 82% 30.28 in 7.0 mi East 4.6 mph - N/A   Clear
5:55 PM 60.8 °F 57.2 °F 88% 30.28 in 7.0 mi East 4.6 mph - N/A   Clear
6:15 PM 60.8 °F 57.2 °F 88% 30.28 in 7.0 mi ENE 3.5 mph - N/A   Clear
6:35 PM 60.8 °F 55.4 °F 82% 30.28 in 5.0 mi ENE 4.6 mph - N/A   Clear
6:55 PM 59.0 °F 55.4 °F 88% 30.28 in 5.0 mi East 4.6 mph - N/A   Clear
7:15 PM 60.8 °F 57.2 °F 88% 30.28 in 5.0 mi ENE 4.6 mph - N/A   Clear
7:35 PM 60.8 °F 57.2 °F 88% 30.28 in 5.0 mi ENE 3.5 mph - N/A   Clear
7:55 PM 57.2 °F 53.6 °F 88% 30.28 in 0.8 mi ENE 3.5 mph - N/A   Mist
8:15 PM 57.2 °F 55.4 °F 94% 30.28 in 0.2 mi Calm Calm - N/A Fog Fog
8:35 PM 57.2 °F 55.4 °F 94% 30.28 in 0.2 mi Calm Calm - N/A Fog Fog
8:55 PM 55.4 °F 53.6 °F 94% 30.28 in 0.2 mi Calm Calm - N/A Fog Fog
9:15 PM 57.2 °F 55.4 °F 94% 30.28 in 3.0 mi East 3.5 mph - N/A   Overcast
9:35 PM 59.0 °F 57.2 °F 94% 30.28 in 7.0 mi ESE 3.5 mph - N/A   Overcast
9:55 PM 62.6 °F 59.0 °F 88% 30.28 in 7.0 mi ESE 4.6 mph - N/A   Overcast
10:15 PM 62.6 °F 60.8 °F 94% 30.28 in 7.0 mi ESE 4.6 mph - N/A   Mostly Cloudy
10:35 PM 60.8 °F 59.0 °F 94% 30.28 in 7.0 mi ESE 4.6 mph - N/A   Scattered Clouds
10:55 PM 60.8 °F 57.2 °F 88% 30.28 in 7.0 mi East 4.6 mph - N/A   Clear
11:15 PM 59.0 °F 55.4 °F 88% 30.27 in 7.0 mi East 5.8 mph - N/A   Scattered Clouds
11:35 PM 59.0 °F 55.4 °F 88% 30.26 in 7.0 mi ESE 6.9 mph - N/A   Clear
11:55 PM 60.8 °F 59.0 °F 94% 30.26 in 10.0 mi ESE 5.8 mph - N/A   Clear